This is the latest recevied weather packets stored in our database for station/object AD8BW. If no packets are shown the sender has not sent any weather packets the latest 10 day(s).
| Time | Temp. | Humidity | Pressure | Rain* | Wind** | Luminosity | Snow |
|---|---|---|---|---|---|---|---|
| 1777215787 | 12.78° C | 64% | 1020.7 hPa | 0 mm | - | 271 W/m² | - |
| 1777215178 | 12.22° C | 63% | 1020.7 hPa | 0 mm | - | 380 W/m² | - |
| 1777214579 | 12.22° C | 64% | 1020.7 hPa | 0 mm | - | 527 W/m² | - |
| 1777213976 | 11.67° C | 64% | 1020.7 hPa | 0 mm | - | 436 W/m² | - |
| 1777213380 | 11.67° C | 67% | 1020.7 hPa | 0 mm | - | 555 W/m² | - |
| 1777212778 | 11.67° C | 66% | 1020.6 hPa | 0 mm | - | 339 W/m² | - |
| 1777212180 | 11.11° C | 66% | 1020.5 hPa | 0 mm | - | 100 W/m² | - |
| 1777211578 | 11.11° C | 66% | 1020.5 hPa | 0 mm | - | 397 W/m² | - |
| 1777210976 | 11.11° C | 70% | 1020.4 hPa | 0 mm | - | 118 W/m² | - |
| 1777210385 | 10.56° C | 71% | 1020.4 hPa | 0 mm | - | 120 W/m² | - |
| 1777209777 | 10.56° C | 75% | 1020.4 hPa | 0 mm | - | 98 W/m² | - |
| 1777209174 | 10° C | 77% | 1020.5 hPa | 0 mm | - | 186 W/m² | - |
| 1777208573 | 9.44° C | 80% | 1020.4 hPa | 0 mm | - | 135 W/m² | - |
| 1777207971 | 8.89° C | 81% | 1020.2 hPa | 0 mm | - | 74 W/m² | - |
| 1777207370 | 8.33° C | 84% | 1020.1 hPa | 0 mm | - | 86 W/m² | - |
| 1777206771 | 8.33° C | 87% | 1020.1 hPa | 0 mm | - | 105 W/m² | - |
| 1777206175 | 7.78° C | 89% | 1020.1 hPa | 0 mm | - | 70 W/m² | - |
| 1777205575 | 7.22° C | 91% | 1020.1 hPa | 0 mm | - | 62 W/m² | - |
| 1777204972 | 6.67° C | 93% | 1020 hPa | 0 mm | - | 72 W/m² | - |
| 1777204367 | 6.67° C | 94% | 1019.8 hPa | 0 mm | - | 53 W/m² | - |
| 1777203765 | 6.11° C | 95% | 1019.8 hPa | 0 mm | - | 47 W/m² | - |
| 1777203164 | 5.56° C | 95% | 1019.7 hPa | 0 mm | - | 51 W/m² | - |
| 1777202566 | 5° C | 95% | 1019.6 hPa | 0 mm | - | 35 W/m² | - |
| 1777201964 | 5° C | 95% | 1019.3 hPa | 0 mm | - | 25 W/m² | - |
| 1777201364 | 5° C | 95% | 1019.3 hPa | 0 mm | - | 21 W/m² | - |
* Rain latest hour (hover to see other rain measurements)
** Current wind speed in m/s (hover to see current wind gust speed)